Honolulu, HI

1:34 PM HST on March 27, 2017 (GMT -1000)
Honolulu International

Weather History for PHNL - May, 2012

Change the Weather History Date:

Wednesday, May 30, 2012

  Actual Average Record
Temperature  
Mean Temperature 78 °F 79 °F  
Max Temperature 82 °F 86 °F 92 °F (1992)
Min Temperature 73 °F 72 °F 65 °F (1964)
Degree Days  
Heating Degree Days 0 0  
Month to date heating degree days 0 0  
Since 1 July heating degree days 0 0  
Cooling Degree Days 13 14  
Month to date cooling degree days 385 382  
Year to date cooling degree days 1561 1489  
Growing Degree Days 27 (Base 50)    
Moisture  
Dew Point 63 °F    
Average Humidity 61    
Maximum Humidity 68    
Minimum Humidity 54    
Precipitation  
Precipitation T in 0.02 in 0.36 in (1967)
Month to date precipitation 0.03 0.61  
Year to date precipitation 7.47 7.56  
Snow  
Snow 0.00 in - - ()
Month to date snowfall 0.0  
Since 1 July snowfall 0.0  
Snow Depth 0.00 in    
Sea Level Pressure  
Sea Level Pressure 30.12 in    
Wind  
Wind Speed 17 mph (ENE)    
Max Wind Speed 25 mph    
Max Gust Speed 32 mph    
Visibility 10 miles    
Events Rain    
T = Trace of Precipitation, MM = Missing Value Source: NWS Daily Summary

Daily Weather History Graph

Daily Weather History Graph

Search for Another Location

Airport or City:

Trip Planner

Search our weather history database for the weather conditions in past years. The results will help you decide how hot, cold, wet, or windy it might be!

Date:

Astronomy

May. 30, 2012 Rise Set
Actual Time 5:49 AM HST 7:09 PM HST
Civil Twilight 5:24 AM HST 7:34 PM HST
Nautical Twilight 4:55 AM HST 8:03 PM HST
Astronomical Twilight 4:25 AM HST 8:33 PM HST
Moon 2:31 PM HST (5/30) 1:45 AM HST (5/30)
Length of Visible Light 14h 09m
Length of Day
13h 20m
Waxing Gibbous, 72% of the Moon is Illuminated
May 30
Waxing Gibbous
Jun 4
Full
Jun 11
Last Quarter
Jun 19
New
Jun 26
First Quarter

Hourly Weather History & Observations

Time (HST) Temp. Heat Index Dew Point Humidity Pressure Visibility Wind Dir Wind Speed Gust Speed Precip Events Conditions
12:53 AM 73.9 °F - 61.0 °F 64% 30.12 in 10.0 mi ENE 13.8 mph - N/A   Partly Cloudy
1:53 AM 73.9 °F - 62.1 °F 66% 30.10 in 10.0 mi ENE 15.0 mph - N/A   Partly Cloudy
2:53 AM 73.9 °F - 63.0 °F 68% 30.09 in 10.0 mi ENE 19.6 mph 24.2 mph N/A   Scattered Clouds
3:53 AM 73.9 °F - 62.1 °F 66% 30.09 in 10.0 mi ENE 19.6 mph 25.3 mph N/A   Partly Cloudy
4:53 AM 73.0 °F - 61.0 °F 66% 30.10 in 10.0 mi ENE 11.5 mph - N/A   Partly Cloudy
5:53 AM 73.9 °F - 63.0 °F 68% 30.10 in 10.0 mi ENE 17.3 mph 26.5 mph N/A   Scattered Clouds
6:53 AM 73.9 °F - 62.1 °F 66% 30.14 in 10.0 mi ENE 17.3 mph - N/A   Scattered Clouds
7:53 AM 75.9 °F - 63.0 °F 64% 30.14 in 10.0 mi ENE 13.8 mph 23.0 mph N/A   Scattered Clouds
8:53 AM 78.1 °F - 62.1 °F 58% 30.14 in 10.0 mi ENE 17.3 mph 25.3 mph N/A   Scattered Clouds
9:53 AM 80.1 °F 81.5 °F 63.0 °F 56% 30.15 in 10.0 mi NE 17.3 mph 26.5 mph N/A   Mostly Cloudy
10:53 AM 78.1 °F - 64.9 °F 64% 30.15 in 9.0 mi ENE 18.4 mph - 0.00 in Rain Light Rain
11:53 AM 81.0 °F 81.9 °F 62.1 °F 52% 30.14 in 10.0 mi NE 17.3 mph 21.9 mph 0.00 in   Scattered Clouds
12:53 PM 81.0 °F 81.9 °F 62.1 °F 52% 30.12 in 10.0 mi ENE 20.7 mph 27.6 mph N/A   Scattered Clouds
1:53 PM 79.0 °F - 64.9 °F 62% 30.12 in 9.0 mi ENE 18.4 mph 24.2 mph 0.00 in Rain Light Rain
2:53 PM 80.1 °F 81.9 °F 64.9 °F 60% 30.11 in 10.0 mi ENE 20.7 mph 28.8 mph 0.00 in   Scattered Clouds
3:53 PM 80.1 °F 81.5 °F 63.0 °F 56% 30.09 in 10.0 mi ENE 19.6 mph 27.6 mph N/A   Scattered Clouds
4:53 PM 79.0 °F - 63.0 °F 58% 30.09 in 10.0 mi ENE 13.8 mph 28.8 mph N/A   Scattered Clouds
5:53 PM 79.0 °F - 63.0 °F 58% 30.09 in 10.0 mi NE 12.7 mph - N/A   Partly Cloudy
6:53 PM 75.9 °F - 62.1 °F 62% 30.11 in 10.0 mi ENE 16.1 mph 26.5 mph N/A   Partly Cloudy
7:53 PM 75.9 °F - 63.0 °F 64% 30.12 in 10.0 mi NE 9.2 mph - N/A   Partly Cloudy
8:53 PM 75.0 °F - 63.0 °F 66% 30.13 in 10.0 mi NE 12.7 mph 23.0 mph N/A   Partly Cloudy
9:53 PM 75.0 °F - 62.1 °F 64% 30.15 in 10.0 mi NE 12.7 mph 21.9 mph N/A   Partly Cloudy
10:53 PM 75.0 °F - 64.0 °F 69% 30.15 in 10.0 mi ENE 13.8 mph - N/A   Partly Cloudy
11:53 PM 75.0 °F - 64.0 °F 69% 30.14 in 9.0 mi NE 13.8 mph - 0.00 in Rain Light Rain